Home > Weather > Chico > Past weeks

Flag for USA Past Weather in Chico, California, USA — Yesterday and Last 2 Weeks

Now
95 °F

Sunny.


Feels Like: 90 °F
Forecast: 69 / 99 °F
Wind: 12 mph from Southeast

Location: Chico Municipal

Current Time: Jul 30, 2016 at 8:47:20 PM

Latest Report: Jul 30, 2016 at 8:15 PM


Visibility: 10 mi

Pressure: 29.69 "Hg

Humidity: 11%

Dew Point: 32 °F

Location of ChicoLocation

Past Weather in Chico — Graph

°F

Chico Temperature Yesterday

Maximum temperature yesterday: 104 °F (at 4:51 PM)
Minimum temperature yesterday: 75 °F (at 6:55 AM)
Average temperature yesterday: 90 °F

High & Low Weather Summary for the Past Weeks

 TemperatureHumidityPressure
High104 °F (Jul 26, 3:47 PM)68% (Jul 19, 3:15 AM)30.11 "Hg (Jul 19, 3:15 AM)
Low63 °F (Jul 18, 4:35 AM)10% (Jul 21, 3:58 PM)29.69 "Hg (Jul 29, 6:35 PM)
Average82 °F32%29.88 "Hg
* Reported Jul 15 7:35 PM — Jul 30 7:35 PM, Chico, Weather by CustomWeather, © 2016

Note: Actual official high and low records may vary slightly from our data, if they occured in-between our weather recording intervals... More about our weather records

Advertising

Chico Weather History for the Previous 24 Hours

Scroll right to see more
 ConditionsComfort  
Time TempWeatherWind HumidityBarometerVisibility
7:35 PM
Sat, Jul 30
99 °FSunny.14 mph12%29.69 "Hg10 mi
7:15 PM99 °FSunny.15 mph13%29.69 "Hg10 mi
6:55 PM100 °FSunny.16 mph17%29.69 "Hg10 mi
6:35 PM100 °FSunny.14 mph17%29.69 "Hg10 mi
6:15 PM102 °FSunny.17 mph11%29.69 "Hg10 mi
5:55 PM102 °FSunny.17 mph10%29.69 "Hg10 mi
3:52 PM102 °FSunny.17 mph12%29.72 "Hg40 mi
2:47 PM100 °FSunny.14 mph16%29.74 "Hg40 mi
1:48 PM99 °FSunny.14 mph16%29.76 "Hg40 mi
12:47 PM95 °FSunny.N/A25%29.77 "Hg40 mi
11:49 AM91 °FHot.N/A28%29.78 "HgN/A
10:49 AM88 °FSunny.7 mph31%29.79 "Hg40 mi
9:54 AM86 °FSunny.6 mph33%29.78 "Hg40 mi
8:52 AM82 °FSunny.No wind37%29.78 "Hg40 mi
7:50 AM77 °FPassing clouds.No wind42%29.77 "Hg40 mi
6:49 AM77 °FPassing clouds.No wind36%29.76 "Hg40 mi
5:35 AM77 °FClear.No wind42%29.74 "Hg10 mi
5:15 AM77 °FClear.No wind42%29.74 "Hg10 mi
4:55 AM79 °FClear.No wind42%29.74 "Hg10 mi
4:35 AM79 °FClear.No wind42%29.73 "Hg10 mi
4:15 AM79 °FClear.No wind42%29.74 "Hg10 mi
3:55 AM77 °FClear.No wind47%29.74 "Hg10 mi
3:35 AM77 °FClear.No wind47%29.74 "Hg10 mi
3:15 AM77 °FClear.No wind47%29.74 "Hg10 mi
2:55 AM77 °FClear.No wind44%29.73 "Hg10 mi
2:35 AM79 °FClear.No wind42%29.73 "Hg10 mi
2:15 AM77 °FClear.No wind51%29.73 "Hg10 mi
1:55 AM81 °FClear.No wind42%29.72 "Hg10 mi
1:35 AM81 °FClear.No wind39%29.72 "Hg10 mi
1:15 AM84 °FClear.No wind33%29.72 "Hg10 mi
12:55 AM86 °FClear.No wind27%29.72 "Hg10 mi
12:35 AM86 °FClear.No wind31%29.72 "Hg10 mi
12:15 AM91 °FPassing clouds.No wind24%29.73 "Hg10 mi
11:55 PM
Fri, Jul 29
91 °FPassing clouds.7 mph23%29.72 "Hg10 mi
11:35 PM90 °FClear.No wind27%29.72 "Hg10 mi
11:15 PM93 °FClear.5 mph23%29.72 "Hg10 mi
10:55 PM91 °FClear.No wind26%29.72 "Hg10 mi
10:35 PM93 °FClear.No wind23%29.72 "Hg10 mi
10:15 PM93 °FClear.No wind21%29.72 "Hg10 mi
9:55 PM93 °FClear.7 mph21%29.72 "Hg10 mi
9:35 PM93 °FClear.7 mph23%29.72 "Hg10 mi
9:15 PM93 °FSunny.No wind32%29.71 "Hg10 mi
8:55 PM95 °FSunny.No wind30%29.71 "Hg10 mi
8:35 PM93 °FSunny.No wind36%29.71 "Hg10 mi
8:15 PM95 °FSunny.No wind36%29.70 "Hg10 mi
Weather by CustomWeather, © 2016

See weather overviewHow to use our weather pages